SCP
0 0 0 0 0 0 0 0 0 0 0 0 0 0 0 0 0 0 0 0 0 0
0 0 0 0 0 0 0 0 0 0 0 0 0 0 0 0 0 0 0 0 0 0
0 0 0 0 0 0 0 0 0 0 0 0 0 0 0 0 0 0 0 0 0 0
0 0 0 0 0 0 0 0 0 0 0 0 0 0 0 0 0 0 0 0 0 0
0 0 0 0 0 0 0 0 0 0 0 0 0 0 0 0 0 0 0 0 0 0
0 0 0 0 0 0 0 0 0 0 0 0 0 0 0 0 0 0 0 0 0 0
-0 0 0 0 0 0 0 0 0 0 0 0 0 0 0 0 0 0 0 0 0 0
-0 -0 0 0 0 0 0 0 0 0 0 0 0 0 0 0 0 0 0 0 0 0
-0 -0 0 0 0 0 0 0 0 0 0 0 0 0 0 0 0 0 0 0 0 0
0 0 0 0 0 0 0 0 0 0 0 0 0 0 0 0 0 0 0 0 0 0
0 0 0 0 0 0 0 0 0 0 0 0 0 0 0 0 0 0 0 0 0 0
0 0 0 0 0 0 0 0 0 0 0 0 0 0 0 0 0 0 0 0 0 0
0 0 0 0 0 0 0 0 0 0 -0 -0 -0 0 0 0 0 0 0 0 0 0
0 0 0 0 0 0 0 0 0 0 0 -0 -0 -0 0 0 0 0 0 0 0 0
Wind_Speed_500mb
23 28 35 42 48 54 59 61 60 62 63 66 70 74 78 87 86 89 93 96 101 102
26 23 24 28 36 42 45 49 51 53 57 59 63 67 71 80 88 92 95 98 97 102
32 31 27 24 23 28 32 37 41 45 50 53 57 61 67 73 79 86 92 96 97 100
34 36 38 39 40 42 43 44 46 48 50 53 56 59 64 72 77 84 87 91 96 100
41 43 45 47 49 52 54 54 56 59 62 64 66 66 69 72 76 81 86 88 90 95
54 51 48 47 50 56 63 66 68 70 72 73 71 73 75 78 81 83 84 84 88 87
59 58 57 55 54 55 56 61 65 70 75 76 78 79 78 79 80 82 84 84 84 83
63 63 63 61 58 55 56 58 59 61 63 69 75 78 79 79 81 82 83 83 82 80
69 71 71 72 72 70 65 63 64 63 64 67 68 69 71 74 78 80 82 83 80 77
70 73 75 78 78 76 75 74 72 68 68 70 67 65 66 69 74 78 79 78 77 77
76 78 80 82 83 82 82 78 76 77 75 75 75 76 73 65 66 72 77 76 74 72
74 78 80 81 82 82 84 83 79 75 76 76 74 69 71 72 69 68 69 67 65 68
74 77 80 81 81 78 76 79 80 84 80 77 77 70 66 62 61 67 68 65 61 60
77 79 80 82 80 78 77 78 78 79 77 74 69 68 60 55 56 57 61 60 56 52
Wind_Direction_500mb
336 308 293 286 282 279 278 279 278 277 273 271 271 270 268 268 269 269 270 269 272 272
1 345 322 301 290 288 287 287 283 278 275 271 268 266 265 263 265 267 269 270 271 272
347 343 334 325 315 306 304 298 292 286 282 277 273 270 268 266 265 265 267 269 270 271
337 332 329 324 315 307 303 301 299 297 292 287 282 277 273 271 271 269 269 268 270 271
342 334 327 322 318 312 307 301 298 296 295 294 293 291 287 283 278 274 273 274 273 272
339 335 330 321 312 307 305 304 302 299 297 294 292 290 290 288 284 279 276 273 272 271
338 338 335 330 324 317 309 304 301 300 298 297 295 293 291 288 286 283 280 278 275 275
331 330 329 328 326 322 317 311 307 305 302 300 297 295 293 290 288 284 282 280 279 277
325 325 325 323 321 321 321 318 313 309 306 303 300 299 295 290 286 284 281 279 278 277
322 321 319 318 318 318 316 314 312 311 311 309 307 302 298 294 287 283 280 279 279 277
319 318 317 316 315 315 314 314 313 311 308 304 304 305 303 296 288 284 281 280 279 278
317 316 316 316 316 314 312 312 312 311 310 310 309 306 303 299 292 287 285 284 282 282
311 311 311 311 311 312 311 310 312 313 314 312 310 308 303 297 293 292 290 288 286 285
308 309 310 308 308 309 308 308 308 307 309 311 312 309 306 302 297 294 290 292 295 288
Wind_Speed_850mb
23 28 35 42 48 54 59 61 60 62 63 66 70 74 78 87 86 89 93 96 101 102
26 23 24 28 36 42 45 49 51 53 57 59 63 67 71 80 88 92 95 98 97 102
32 31 27 24 23 28 32 37 41 45 50 53 57 61 67 73 79 86 92 96 97 100
34 36 38 39 40 42 43 44 46 48 50 53 56 59 64 72 77 84 87 91 96 100
41 43 45 47 49 52 54 54 56 59 62 64 66 66 69 72 76 81 86 88 90 95
54 51 48 47 50 56 63 66 68 70 72 73 71 73 75 78 81 83 84 84 88 87
59 58 57 55 54 55 56 61 65 70 75 76 78 79 78 79 80 82 84 84 84 83
63 63 63 61 58 55 56 58 59 61 63 69 75 78 79 79 81 82 83 83 82 80
69 71 71 72 72 70 65 63 64 63 64 67 68 69 71 74 78 80 82 83 80 77
70 73 75 78 78 76 75 74 72 68 68 70 67 65 66 69 74 78 79 78 77 77
76 78 80 82 83 82 82 78 76 77 75 75 75 76 73 65 66 72 77 76 74 72
74 78 80 81 82 82 84 83 79 75 76 76 74 69 71 72 69 68 69 67 65 68
74 77 80 81 81 78 76 79 80 84 80 77 77 70 66 62 61 67 68 65 61 60
77 79 80 82 80 78 77 78 78 79 77 74 69 68 60 55 56 57 61 60 56 52
Wind_Direction_850mb
336 308 293 286 282 279 278 279 278 277 273 271 271 270 268 268 269 269 270 269 272 272
1 345 322 301 290 288 287 287 283 278 275 271 268 266 265 263 265 267 269 270 271 272
347 343 334 325 315 306 304 298 292 286 282 277 273 270 268 266 265 265 267 269 270 271
337 332 329 324 315 307 303 301 299 297 292 287 282 277 273 271 271 269 269 268 270 271
342 334 327 322 318 312 307 301 298 296 295 294 293 291 287 283 278 274 273 274 273 272
339 335 330 321 312 307 305 304 302 299 297 294 292 290 290 288 284 279 276 273 272 271
338 338 335 330 324 317 309 304 301 300 298 297 295 293 291 288 286 283 280 278 275 275
331 330 329 328 326 322 317 311 307 305 302 300 297 295 293 290 288 284 282 280 279 277
325 325 325 323 321 321 321 318 313 309 306 303 300 299 295 290 286 284 281 279 278 277
322 321 319 318 318 318 316 314 312 311 311 309 307 302 298 294 287 283 280 279 279 277
319 318 317 316 315 315 314 314 313 311 308 304 304 305 303 296 288 284 281 280 279 278
317 316 316 316 316 314 312 312 312 311 310 310 309 306 303 299 292 287 285 284 282 282
311 311 311 311 311 312 311 310 312 313 314 312 310 308 303 297 293 292 290 288 286 285
308 309 310 308 308 309 308 308 308 307 309 311 312 309 306 302 297 294 290 292 295 288